This demonstration page uses our WeatherBlox Daily Observations layout. Learn more.

41.55636, -103.73856

Hourly Observations for May 5, 2018

Temp ( °F °C ) Dew Point ( °F °C ) Humidity (%) Winds ( mph kmh ) Pressure ( in mb ) Visibility ( mi km ) Precip ( " mm )
12:58 am 00:58 Clear 46 7.5 40 4.2 80 80 WSW 12 19 30.13 1020 10 16.0934 N/A
1:58 am 01:58 Clear 45 7.4 39 4 79 79 W 12 19 30.13 1020 10 16.0934 N/A
2:58 am 02:58 Clear 46 7.6 37 2.5 70 70 NW 13 20 30.11 1020 10 16.0934 N/A
3:58 am 03:58 Clear 47 8.5 36 2.3 65 65 NW 16 26 30.12 1020 10 16.0934 N/A
4:58 am 04:58 Mostly Clear 47 8.4 36 2 64 64 NW 14 22 30.12 1020 10 16.0934 N/A
5:58 am 05:58 Mostly Cloudy 50 9.9 35 1.7 57 57 NW 15 24 30.12 1020 10 16.0934 N/A
6:58 am 06:58 Sunny 51 10.6 37 2.7 58 58 WNW 15 24 30.13 1020 10 16.0934 N/A
7:58 am 07:58 Sunny 56 13.3 38 3.3 51 51 NW 16 26 30.17 1022 10 16.0934 N/A
8:58 am 08:58 Sunny 61 16.2 40 4.3 45 45 NNW 14 22 30.17 1022 10 16.0934 N/A
9:58 am 09:58 Sunny 63 17.3 40 4.2 42 42 NNW 13 20 30.18 1022 10 16.0934 N/A
10:58 am 10:58 Sunny 68 20 36 2 30 30 N 8 13 30.18 1022 10 16.0934 N/A
11:58 am 11:58 Sunny 69 20.7 35 1.6 28 28 N 10 17 30.17 1022 10 16.0934 N/A
12:58 pm 12:58 Sunny 69 20.8 34 1.3 27 27 N 8 13 30.15 1021 10 16.0934 N/A
1:58 pm 13:58 Sunny 71 21.9 31 -0.8 22 22 NW 10 17 30.13 1020 10 16.0934 N/A
2:58 pm 14:58 Mostly Sunny 72 22.2 29 -1.5 21 21 NNW 10 17 30.13 1020 10 16.0934 N/A
3:58 pm 15:58 Sunny 72 22.1 29 -1.6 21 21 ENE 5 7 30.1 1019 10 16.0934 N/A
4:58 pm 16:58 Mostly Cloudy with Light Rain 65 18.6 42 5.3 42 42 NW 20 31 30.14 1021 10 16.0934 N/A
5:58 pm 17:58 Sunny 67 19.3 38 3.1 34 34 SSE 7 11 30.12 1020 10 16.0934 N/A
6:58 pm 18:58 Sunny 65 18.4 39 3.9 38 38 Calm 30.12 1020 10 16.0934 N/A
7:58 pm 19:58 Clear 63 17.3 40 4.2 42 42 Calm 30.12 1020 10 16.0934 N/A
8:58 pm 20:58 Clear 58 14.2 43 5.9 58 58 NE 3 6 30.14 1021 10 16.0934 N/A
9:58 pm 21:58 Mostly Cloudy 58 14.6 40 4.4 51 51 Calm 30.14 1021 10 16.0934 N/A
10:58 pm 22:58 Clear 53 11.5 43 6 69 69 Calm 30.14 1021 10 16.0934 N/A
11:58 pm 23:58 Clear 49 9.6 44 6.6 82 82 WSW 6 9 30.16 1021 10 16.0934 N/A

Powered by AerisWeather